sat.trackr.live / text

‹ back to catalog

STARLINK-34160

NORAD 64119 · 2025-110Z

PAYLOAD ACTIVE UNKNOWN

§ Identity

Operator
Country
US
Launch date
2025-05-23
Launch site
AFWTR
Launch vehicle
Mass (kg)
RCS (m²)

Purposes: comms

External: N2YO · Heavens-Above · Gunter

§ Orbital elements

Epoch: 2026-09-20T01:47:38.838912Z

Period
93.85 min
Inclination
53.1594°
Eccentricity
0.0001507
Mean motion
15.34403508 rev/d
Perigee alt
461.7 km
Apogee alt
463.7 km
Semi-major
6,840.8 km
B*
4.8647e-4
RAAN
196.0490°
Arg perigee
95.8469°
Mean anomaly
264.2705°
Rev number
7,575

§ Raw data

STARLINK-341601 64119U 25110Z   26263.07475508  .00016097  00000+0  48647-3 0  99992 64119  53.1594 196.0490 0001507  95.8469 264.2705 15.34403508 75756

JSON: /api/v1/satellites/64119 · /tle

For live sub-satellite position, see the globe view (requires WebGL).

§ Visibility from observer

Set your observer location to see the next 7 days of passes ≥ 10°. The values pass through the URL so the page stays shareable.

No JS? Fill the form by hand. The geolocation button needs JavaScript.